Weather in Tufi

Papua New Guinea     9°04′47″S   149°18′59″E
temp.,
°C
wind,
m/s
gust,
m/s
humid.,
%
clouds,
%
prec.,
mm/h
press.,
hPa
HPBL,
m
28 november, sun
sun2801:00+28se117098 0.0 1007555
04:00+27sse2275100 0.1 1007489
07:00+27sse2278100 0.4 1009342
10:00+28e127388 0.5 1009512
13:00+29ene2273100 0.2 1007581
16:00+29e457098 0.3 1005672
19:00+29se557481 0.1 1008707
22:00+28sse3476100 0.2 1009587
29 november, mon
mon2901:00+28s237742 0.4 1007456
04:00+28s227697 0.4 1006423
07:00+28se1174100 0.3 1008439
10:00+29ese237292 1.8 1008477
13:00+29ese457486 0.8 1006543
16:00+29ese5576100 1.9 1005526
19:00+28se4577100 2.3 1007527
22:00+28se4579100 6.4 1008415
30 november, tue
tue3001:00+28se337899 4.1 1006323
04:00+27se337955 7.9 1006260
07:00+28ese447590 0.4 1008600
10:00+28e347654 2.1 1009588
13:00+29ene337231 0.2 1006738
16:00+29ne337284 0.4 1005727
19:00+28ne3373100 0.0 1007645
22:00+28ne2277100 1.8 1008270
1 december, wed
wed101:00+28wnw1175100 2.8 1006308
04:00+28w1174100 2.9 1007444
07:00+28nw017284 0.0 1009501
10:00+29n227095 0.3 1009578
13:00+29nnw447116 1.3 1007682
16:00+29nnw5474100 1.4 1006600
19:00+28nnw3376100 0.0 1007408
22:00+28wnw2274100 0.1 1009415
2 december, thu
thu201:00+28w237481 0.0 1007523
04:00+28wnw337489 0.0 1007647
07:00+28w337584 0.0 1009605
10:00+28nw3378100 0.0 1009526
13:00+28nnw447696 0.1 1007524
16:00+29n437396 0.2 1006612
19:00+28nne2276100 3.8 1008188
22:00+27ssw2280100 12.7 1009150